Weather History for KBIX - September, 2012

Change the Weather History Date:

Sunday, September 30, 2012

  Actual Average Record
Temperature  
Mean Temperature 77 °F -  
Max Temperature 81 °F - - ()
Min Temperature 73 °F - - ()
Cooling Degree Days 12    
Growing Degree Days 27 (Base 50)    
Moisture  
Dew Point 72 °F    
Average Humidity 85    
Maximum Humidity 100    
Minimum Humidity 69    
Precipitation  
Precipitation 0.82 in - - ()
Sea Level Pressure  
Sea Level Pressure 29.72 in    
Wind  
Wind Speed 9 mph (South)    
Max Wind Speed 26 mph    
Max Gust Speed 38 mph    
Visibility 8 miles    
Events Rain , Thunderstorm    
T = Trace of Precipitation, MM = Missing Value Source: NWS Daily Summary

Daily Weather History Graph

Daily Weather History Graph

Search for Another Location

Airport or City:

Trip Planner

Search our weather history database for the weather conditions in past years. The results will help you decide how hot, cold, wet, or windy it might be!

Date:

Astronomy

Sep. 30, 2012 Rise Set
Actual Time 6:48 AM CDT 6:41 PM CDT
Civil Twilight 6:24 AM CDT 7:05 PM CDT
Nautical Twilight 5:57 AM CDT 7:33 PM CDT
Astronomical Twilight 5:29 AM CDT 8:01 PM CDT
Moon 6:53 PM CDT (9/30) 7:13 AM CDT (9/30)
Length of Visible Light 12h 40m
Length of Day
11h 52m
Full, 100% of the Moon is Illuminated
Sep 30
Full
Oct 8
Last Quarter
Oct 15
New
Oct 21
First Quarter
Oct 29
Full

Hourly Weather History & Observations

Time (CDT) Temp. Heat Index Dew Point Humidity Pressure Visibility Wind Dir Wind Speed Gust Speed Precip Events Conditions
12:55 AM 74.1 °F - 72.0 °F 93% 29.86 in 10.0 mi East 4.6 mph - N/A   Mostly Cloudy
1:19 AM 75.2 °F - 71.6 °F 89% 29.86 in 10.0 mi East 4.6 mph - N/A   Overcast
1:55 AM 74.7 °F - 72.3 °F 92% 29.85 in 10.0 mi East 4.6 mph - N/A   Overcast
2:04 AM 75.2 °F - 73.4 °F 94% 29.85 in 10.0 mi East 3.5 mph - N/A   Overcast
2:11 AM 75.2 °F - 73.4 °F 94% 29.84 in 10.0 mi Calm Calm - N/A   Overcast
2:19 AM 75.2 °F - 73.4 °F 94% 29.84 in 10.0 mi East 3.5 mph - N/A   Overcast
2:22 AM 75.2 °F - 71.6 °F 89% 29.84 in 10.0 mi Calm Calm - N/A   Overcast
2:55 AM 73.8 °F - 72.3 °F 95% 29.83 in 10.0 mi ENE 4.6 mph - N/A   Mostly Cloudy
3:42 AM 73.4 °F - 73.4 °F 100% 29.81 in 10.0 mi East 3.5 mph - N/A   Overcast
3:53 AM 73.4 °F - 73.4 °F 100% 29.81 in 10.0 mi East 4.6 mph - N/A   Overcast
3:55 AM 74.3 °F - 73.0 °F 96% 29.81 in 10.0 mi East 5.8 mph - N/A   Overcast
4:07 AM 73.4 °F - 73.4 °F 100% 29.81 in 10.0 mi East 4.6 mph - N/A   Overcast
4:10 AM 73.4 °F - 73.4 °F 100% 29.81 in 10.0 mi East 4.6 mph - N/A   Overcast
4:22 AM 73.4 °F - 73.4 °F 100% 29.80 in 10.0 mi East 4.6 mph - N/A   Mostly Cloudy
4:55 AM 74.7 °F - 73.4 °F 96% 29.79 in 10.0 mi East 3.5 mph - N/A   Overcast
5:55 AM 74.5 °F - 71.1 °F 89% 29.78 in 10.0 mi East 5.8 mph - N/A   Overcast
6:22 AM 75.2 °F - 71.6 °F 89% 29.78 in 10.0 mi East 8.1 mph - N/A   Overcast
6:40 AM 75.2 °F - 73.4 °F 94% 29.78 in 10.0 mi East 8.1 mph - N/A Rain Light Rain
6:55 AM 74.7 °F - 73.2 °F 95% 29.78 in 7.0 mi East 10.4 mph - 0.04 in Rain Light Rain
7:00 AM 75.2 °F - 73.4 °F 94% 29.78 in 8.0 mi ESE 6.9 mph - N/A Rain Light Rain
7:03 AM 75.2 °F - 73.4 °F 94% 29.78 in 5.0 mi ESE 6.9 mph - N/A Rain Light Rain
7:04 AM 75.2 °F - 73.4 °F 94% 29.78 in 4.0 mi SE 6.9 mph - N/A Rain Light Rain
7:06 AM 75.2 °F - 73.4 °F 94% 29.79 in 2.5 mi SSE 4.6 mph - N/A Rain Rain
7:07 AM 75.2 °F - 73.4 °F 94% 29.79 in 1.8 mi Variable 3.5 mph - N/A Rain Rain
7:08 AM 75.2 °F - 73.4 °F 94% 29.78 in 1.2 mi Variable 3.5 mph - N/A Rain Rain
7:12 AM 75.2 °F - 73.4 °F 94% 29.78 in 1.0 mi East 5.8 mph - N/A Rain Heavy Rain
7:18 AM 75.2 °F - 73.4 °F 94% 29.78 in 1.5 mi East 5.8 mph - N/A Rain Light Rain
7:19 AM 75.2 °F - 73.4 °F 94% 29.78 in 2.0 mi East 8.1 mph - N/A Rain Light Rain
7:20 AM 75.2 °F - 73.4 °F 94% 29.78 in 2.5 mi East 8.1 mph - N/A Rain Light Rain
7:21 AM 75.2 °F - 73.4 °F 94% 29.78 in 3.0 mi East 8.1 mph - N/A Rain Light Rain
7:29 AM 75.2 °F - 73.4 °F 94% 29.78 in 10.0 mi East 6.9 mph - N/A   Mostly Cloudy
7:36 AM 75.2 °F - 73.4 °F 94% 29.78 in 10.0 mi East 5.8 mph - N/A   Overcast
7:39 AM 75.2 °F - 73.4 °F 94% 29.78 in 10.0 mi East 6.9 mph - N/A   Mostly Cloudy
7:54 AM 75.2 °F - 73.4 °F 94% 29.78 in 10.0 mi East 5.8 mph - N/A   Overcast
7:55 AM 74.7 °F - 74.1 °F 98% 29.78 in 10.0 mi East 4.6 mph - 0.18 in   Overcast
7:56 AM 75.2 °F - 73.4 °F 94% 29.78 in 10.0 mi East 4.6 mph - N/A   Overcast
8:04 AM 75.2 °F - 75.2 °F 100% 29.78 in 10.0 mi East 3.5 mph - N/A   Overcast
8:18 AM 75.2 °F - 75.2 °F 100% 29.78 in 10.0 mi Calm Calm - N/A   Overcast
8:19 AM 75.2 °F - 75.2 °F 100% 29.78 in 10.0 mi Calm Calm - N/A   Overcast
8:33 AM 78.8 °F - 77.0 °F 94% 29.78 in 10.0 mi South 10.4 mph - N/A   Mostly Cloudy
8:47 AM 78.8 °F - 71.6 °F 78% 29.78 in 10.0 mi SSW 11.5 mph - N/A Rain Light Rain
8:55 AM 79.0 °F - 69.8 °F 73% 29.78 in 10.0 mi South 12.7 mph - 0.00 in Rain Light Rain
9:02 AM 78.8 °F - 69.8 °F 74% 29.78 in 10.0 mi SSW 12.7 mph - N/A   Partly Cloudy
9:05 AM 78.8 °F - 69.8 °F 74% 29.78 in 10.0 mi SW 21.9 mph 31.1 mph N/A   Light Drizzle
9:11 AM 77.0 °F - 66.2 °F 69% 29.78 in 10.0 mi SW 13.8 mph 31.1 mph N/A Rain Light Rain
9:14 AM 75.2 °F - 66.2 °F 73% 29.78 in 4.0 mi WSW 9.2 mph 31.1 mph N/A Rain Light Rain
9:18 AM 75.2 °F - 66.2 °F 73% 29.78 in 2.5 mi WSW 16.1 mph 23.0 mph N/A Rain Light Rain
9:19 AM 75.2 °F - 66.2 °F 73% 29.78 in 2.0 mi WSW 19.6 mph 25.3 mph N/A Rain Light Rain
9:20 AM 75.2 °F - 66.2 °F 73% 29.78 in 1.8 mi WSW 19.6 mph 25.3 mph N/A Rain Light Rain
9:21 AM 73.4 °F - 66.2 °F 78% 29.78 in 1.5 mi WSW 17.3 mph 25.3 mph N/A Rain Heavy Rain
9:22 AM 73.4 °F - 66.2 °F 78% 29.78 in 1.5 mi WSW 15.0 mph 25.3 mph N/A Rain Heavy Rain
9:23 AM 73.4 °F - 66.2 °F 78% 29.78 in 1.8 mi WSW 16.1 mph 25.3 mph N/A Rain Light Rain
9:25 AM 73.4 °F - 66.2 °F 78% 29.78 in 2.0 mi WSW 15.0 mph 25.3 mph N/A Rain Light Rain
9:28 AM 73.4 °F - 66.2 °F 78% 29.79 in 2.5 mi WSW 12.7 mph 25.3 mph N/A Rain Light Rain
9:29 AM 73.4 °F - 66.2 °F 78% 29.79 in 3.0 mi WSW 12.7 mph - N/A Rain Light Rain
9:41 AM 75.2 °F - 68.0 °F 78% 29.79 in 10.0 mi SSW 21.9 mph 28.8 mph N/A Rain Light Rain
9:55 AM 75.0 °F - 67.6 °F 78% 29.80 in 9.0 mi SW 26.5 mph 34.5 mph 0.20 in Rain Light Rain
10:40 AM 75.2 °F - 69.8 °F 83% 29.79 in 10.0 mi SSW 10.4 mph - N/A   Scattered Clouds
10:55 AM 76.8 °F - 70.0 °F 79% 29.78 in 10.0 mi SSW 10.4 mph - 0.05 in   Partly Cloudy
11:55 AM 78.1 °F - 68.0 °F 71% 29.77 in 10.0 mi SSW 15.0 mph 23.0 mph N/A   Mostly Cloudy
12:55 PM 79.2 °F - 68.4 °F 69% 29.75 in 10.0 mi South 12.7 mph - N/A   Mostly Cloudy
1:30 PM 80.6 °F 83.9 °F 69.8 °F 70% 29.72 in 10.0 mi South 12.7 mph - N/A Rain Light Rain
1:40 PM 78.8 °F - 69.8 °F 74% 29.72 in 10.0 mi South 11.5 mph - N/A   Mostly Cloudy
1:55 PM 79.3 °F - 70.5 °F 74% 29.71 in 10.0 mi South 10.4 mph - 0.00 in   Mostly Cloudy
2:07 PM 78.8 °F - 69.8 °F 74% 29.70 in 10.0 mi SSE 11.5 mph - N/A Rain Light Rain
2:18 PM 78.8 °F - 71.6 °F 78% 29.70 in 10.0 mi SSE 12.7 mph - N/A   Scattered Clouds
2:55 PM 80.2 °F 83.7 °F 70.9 °F 73% 29.68 in 10.0 mi SSE 9.2 mph - 0.00 in   Mostly Cloudy
3:16 PM 80.6 °F 84.6 °F 71.6 °F 74% 29.66 in 10.0 mi SSE 13.8 mph - N/A   Mostly Cloudy
3:22 PM 80.6 °F 84.6 °F 71.6 °F 74% 29.66 in 10.0 mi SSE 11.5 mph 18.4 mph N/A   Mostly Cloudy
3:23 PM 80.6 °F 84.6 °F 71.6 °F 74% 29.66 in 10.0 mi SSE 10.4 mph 18.4 mph N/A   Mostly Cloudy
3:38 PM 80.6 °F 85.4 °F 73.4 °F 79% 29.66 in 8.0 mi SSE 11.5 mph - N/A Rain Light Rain
3:41 PM 80.6 °F 85.4 °F 73.4 °F 79% 29.65 in 6.0 mi South 11.5 mph 17.3 mph N/A Rain Light Rain
3:47 PM 80.6 °F 85.4 °F 73.4 °F 79% 29.65 in 7.0 mi South 15.0 mph - N/A Rain Light Rain
3:49 PM 80.6 °F 85.4 °F 73.4 °F 79% 29.65 in 9.0 mi South 16.1 mph - N/A   Mostly Cloudy
3:55 PM 80.1 °F 84.0 °F 72.3 °F 77% 29.65 in 10.0 mi South 13.8 mph - 0.02 in   Mostly Cloudy
4:55 PM 80.8 °F 85.1 °F 72.3 °F 75% 29.63 in 10.0 mi South 15.0 mph 26.5 mph N/A   Mostly Cloudy
5:53 PM 80.6 °F 84.6 °F 71.6 °F 74% 29.63 in 10.0 mi South 17.3 mph 24.2 mph N/A Rain Light Rain
5:55 PM 81.0 °F 85.4 °F 72.3 °F 75% 29.63 in 10.0 mi South 16.1 mph 24.2 mph 0.00 in Rain Light Rain
6:18 PM 80.6 °F 84.6 °F 71.6 °F 74% 29.62 in 10.0 mi South 16.1 mph 24.2 mph N/A   Partly Cloudy
6:33 PM 80.6 °F 84.6 °F 71.6 °F 74% 29.63 in 10.0 mi South 16.1 mph 25.3 mph N/A Rain Light Rain
6:55 PM 79.5 °F - 72.3 °F 79% 29.63 in 10.0 mi South 17.3 mph 26.5 mph 0.03 in Rain Light Rain
7:23 PM 78.8 °F - 73.4 °F 83% 29.62 in 8.0 mi South 19.6 mph 25.3 mph N/A Rain , Thunderstorm Light Rain
7:24 PM 78.8 °F - 73.4 °F 83% 29.62 in 7.0 mi South 18.4 mph 25.3 mph N/A Rain , Thunderstorm Light Thunderstorms and Rain
7:25 PM 78.8 °F - 73.4 °F 83% 29.62 in 7.0 mi South 18.4 mph 25.3 mph N/A Rain , Thunderstorm Light Thunderstorms and Rain
7:52 PM 78.8 °F - 73.4 °F 83% 29.62 in 7.0 mi South 15.0 mph 25.3 mph N/A Rain , Thunderstorm Rain
7:53 PM 78.8 °F - 73.4 °F 83% 29.62 in 7.0 mi South 13.8 mph 25.3 mph N/A Rain , Thunderstorm Thunderstorms and Rain
7:55 PM 79.0 °F - 72.9 °F 81% 29.62 in 7.0 mi South 15.0 mph 25.3 mph 0.14 in Rain , Thunderstorm Thunderstorms and Rain
7:56 PM 78.8 °F - 73.4 °F 83% 29.62 in 7.0 mi South 13.8 mph 25.3 mph N/A Rain , Thunderstorm Thunderstorms and Rain
7:57 PM 78.8 °F - 73.4 °F 83% 29.62 in 7.0 mi South 15.0 mph 25.3 mph N/A Rain , Thunderstorm Light Thunderstorms and Rain
8:08 PM 78.8 °F - 73.4 °F 83% 29.62 in 9.0 mi South 16.1 mph - N/A Rain , Thunderstorm Light Rain
8:16 PM 78.8 °F - 75.2 °F 89% 29.61 in 10.0 mi South 13.8 mph 23.0 mph N/A Rain , Thunderstorm Light Rain
8:40 PM 77.0 °F - 73.4 °F 89% 29.61 in 10.0 mi SSW 15.0 mph 27.6 mph N/A Rain Light Rain
8:43 PM 77.0 °F - 73.4 °F 89% 29.61 in 10.0 mi SSW 15.0 mph 27.6 mph N/A   Overcast
8:48 PM 77.0 °F - 71.6 °F 83% 29.61 in 10.0 mi SSW 16.1 mph 24.2 mph N/A   Overcast
8:49 PM 77.0 °F - 71.6 °F 83% 29.61 in 10.0 mi SSW 16.1 mph 24.2 mph N/A   Mostly Cloudy
8:53 PM 77.0 °F - 71.6 °F 83% 29.61 in 10.0 mi SSW 17.3 mph 24.2 mph N/A Rain , Thunderstorm Light Thunderstorms and Rain
8:54 PM 77.0 °F - 71.6 °F 83% 29.61 in 10.0 mi SSW 15.0 mph 24.2 mph N/A Rain , Thunderstorm Light Thunderstorms and Rain
8:55 PM 77.2 °F - 71.6 °F 83% 29.61 in 10.0 mi SSW 15.0 mph 21.9 mph 0.04 in Rain , Thunderstorm Light Thunderstorms and Rain
8:56 PM 77.0 °F - 71.6 °F 83% 29.62 in 10.0 mi SSW 16.1 mph 21.9 mph N/A Rain , Thunderstorm Light Thunderstorms and Rain
8:57 PM 77.0 °F - 71.6 °F 83% 29.61 in 10.0 mi SSW 23.0 mph 36.8 mph N/A Rain , Thunderstorm Light Thunderstorms and Rain
9:03 PM 77.0 °F - 71.6 °F 83% 29.62 in 3.0 mi South 18.4 mph 38.0 mph N/A Rain , Thunderstorm Light Thunderstorms and Rain
9:04 PM 77.0 °F - 71.6 °F 83% 29.62 in 3.0 mi South 16.1 mph 38.0 mph N/A Rain , Thunderstorm Light Thunderstorms and Rain
9:05 PM 77.0 °F - 71.6 °F 83% 29.62 in 3.0 mi South 17.3 mph 38.0 mph N/A Rain , Thunderstorm Light Thunderstorms and Rain
9:07 PM 77.0 °F - 71.6 °F 83% 29.61 in 3.0 mi SSW 24.2 mph 38.0 mph N/A Rain , Thunderstorm Light Thunderstorms and Rain
9:08 PM 75.2 °F - 71.6 °F 89% 29.61 in 3.0 mi SSW 24.2 mph 38.0 mph N/A Rain Light Rain
9:32 PM 77.0 °F - 73.4 °F 89% 29.61 in 10.0 mi SSW 21.9 mph 25.3 mph N/A   Overcast
9:55 PM 77.0 °F - 71.6 °F 83% 29.61 in 10.0 mi SW 23.0 mph 29.9 mph 0.12 in   Overcast
10:55 PM 78.3 °F - 73.6 °F 85% 29.61 in 10.0 mi SSW 12.7 mph - N/A   Overcast
11:55 PM 78.3 °F - 74.7 °F 89% 29.58 in 10.0 mi SSW 11.5 mph - N/A   Scattered Clouds
11:57 PM 78.8 °F - 75.2 °F 89% 29.58 in 10.0 mi SSW 12.7 mph - N/A   Mostly Cloudy